Time,TemperatureF,DewpointF,PressureIn,WindDirection,WindDirectionDegrees,WindSpeedMPH,WindSpeedGustMPH,Humidity,HourlyPrecipIn,Conditions,Clouds,dailyrainin,SoftwareType,DateUTC
2013-07-18 00:06:00,80.2,76.0,30.14,SW,219,0.0,-999.0,86,-99.99,,,0.00,weatherlink.com 1.10,2013-07-18 04:06:00,
2013-07-18 00:21:00,79.5,75.0,30.14,SW,218,0.0,-999.0,87,-99.99,,,0.00,weatherlink.com 1.10,2013-07-18 04:21:00,
2013-07-18 00:36:00,78.8,75.0,30.14,SW,222,0.0,-999.0,89,-99.99,,,0.00,weatherlink.com 1.10,2013-07-18 04:36:00,
2013-07-18 00:51:00,78.5,75.0,30.13,WSW,252,0.0,-999.0,89,-99.99,,,0.00,weatherlink.com 1.10,2013-07-18 04:51:00,
2013-07-18 01:06:00,78.2,75.0,30.13,West,259,0.0,-999.0,90,-99.99,,,0.00,weatherlink.com 1.10,2013-07-18 05:06:00,
2013-07-18 01:21:00,78.1,75.0,30.13,West,259,0.0,-999.0,90,-99.99,,,0.00,weatherlink.com 1.10,2013-07-18 05:21:00,
2013-07-18 01:36:00,77.8,75.0,30.12,West,259,0.0,-999.0,90,-99.99,,,0.00,weatherlink.com 1.10,2013-07-18 05:36:00,
2013-07-18 01:51:00,77.3,75.0,30.12,West,277,0.0,-999.0,92,-99.99,,,0.00,weatherlink.com 1.10,2013-07-18 05:51:00,
2013-07-18 02:06:00,77.1,75.0,30.12,West,280,0.0,-999.0,92,-99.99,,,0.00,weatherlink.com 1.10,2013-07-18 06:06:00,
2013-07-18 02:21:00,76.9,75.0,30.12,WNW,285,0.0,-999.0,92,-99.99,,,0.00,weatherlink.com 1.10,2013-07-18 06:21:00,
2013-07-18 02:37:00,76.6,75.0,30.12,WNW,288,0.0,-999.0,93,-99.99,,,0.00,weatherlink.com 1.10,2013-07-18 06:37:00,
2013-07-18 02:51:00,76.6,75.0,30.12,West,276,0.0,-999.0,93,-99.99,,,0.00,weatherlink.com 1.10,2013-07-18 06:51:00,
2013-07-18 03:06:00,76.5,74.0,30.12,West,263,0.0,-999.0,93,-99.99,,,0.00,weatherlink.com 1.10,2013-07-18 07:06:00,
2013-07-18 03:21:00,76.0,74.0,30.12,West,262,0.0,-999.0,93,-99.99,,,0.00,weatherlink.com 1.10,2013-07-18 07:21:00,
2013-07-18 03:36:00,75.8,74.0,30.12,WNW,284,1.0,-999.0,94,-99.99,,,0.00,weatherlink.com 1.10,2013-07-18 07:36:00,
2013-07-18 03:51:00,75.8,74.0,30.11,WNW,291,0.0,-999.0,94,-99.99,,,0.00,weatherlink.com 1.10,2013-07-18 07:51:00,
2013-07-18 04:06:00,75.6,74.0,30.11,West,280,0.0,-999.0,94,-99.99,,,0.00,weatherlink.com 1.10,2013-07-18 08:06:00,
2013-07-18 04:21:00,75.1,73.0,30.11,West,280,0.0,-999.0,94,-99.99,,,0.00,weatherlink.com 1.10,2013-07-18 08:21:00,
2013-07-18 04:36:00,74.9,73.0,30.11,West,280,0.0,-999.0,95,-99.99,,,0.00,weatherlink.com 1.10,2013-07-18 08:36:00,
2013-07-18 04:51:00,74.9,73.0,30.11,West,280,0.0,-999.0,94,-99.99,,,0.00,weatherlink.com 1.10,2013-07-18 08:51:00,
2013-07-18 05:06:00,74.4,73.0,30.11,West,280,0.0,-999.0,95,-99.99,,,0.00,weatherlink.com 1.10,2013-07-18 09:06:00,
2013-07-18 05:21:00,74.1,73.0,30.11,West,280,0.0,-999.0,96,-99.99,,,0.00,weatherlink.com 1.10,2013-07-18 09:21:00,
2013-07-18 05:36:00,74.2,73.0,30.11,West,280,0.0,-999.0,95,-99.99,,,0.00,weatherlink.com 1.10,2013-07-18 09:36:00,
2013-07-18 05:51:00,74.2,73.0,30.11,West,280,0.0,-999.0,96,-99.99,,,0.00,weatherlink.com 1.10,2013-07-18 09:51:00,
2013-07-18 06:06:00,73.7,72.0,30.11,West,280,0.0,-999.0,95,-99.99,,,0.00,weatherlink.com 1.10,2013-07-18 10:06:00,
2013-07-18 06:21:00,73.5,72.0,30.11,West,280,0.0,-999.0,96,-99.99,,,0.00,weatherlink.com 1.10,2013-07-18 10:21:00,
2013-07-18 06:36:00,73.7,73.0,30.11,West,259,0.0,-999.0,96,-99.99,,,0.00,weatherlink.com 1.10,2013-07-18 10:36:00,
2013-07-18 06:51:00,74.5,73.0,30.11,SW,221,0.0,-999.0,96,-99.99,,,0.00,weatherlink.com 1.10,2013-07-18 10:51:00,
2013-07-18 07:06:00,75.6,74.0,30.11,SW,232,0.0,-999.0,93,-99.99,,,0.00,weatherlink.com 1.10,2013-07-18 11:06:00,
2013-07-18 07:21:00,76.5,74.0,30.12,SSW,203,0.0,-999.0,92,-99.99,,,0.00,weatherlink.com 1.10,2013-07-18 11:21:00,
2013-07-18 07:36:00,77.2,75.0,30.12,WSW,241,0.0,-999.0,91,-99.99,,,0.00,weatherlink.com 1.10,2013-07-18 11:36:00,
2013-07-18 07:51:00,78.2,74.0,30.11,SSW,204,0.0,-999.0,88,-99.99,,,0.00,weatherlink.com 1.10,2013-07-18 11:51:00,
2013-07-18 08:06:00,79.6,76.0,30.11,West,275,0.0,-999.0,87,-99.99,,,0.00,weatherlink.com 1.10,2013-07-18 12:06:00,
2013-07-18 08:21:00,80.1,76.0,30.11,SSW,205,0.0,-999.0,86,-99.99,,,0.00,weatherlink.com 1.10,2013-07-18 12:21:00,
2013-07-18 08:36:00,81.6,76.0,30.11,West,278,0.0,-999.0,83,-99.99,,,0.00,weatherlink.com 1.10,2013-07-18 12:36:00,
2013-07-18 08:51:00,81.7,76.0,30.11,WSW,242,0.0,-999.0,83,-99.99,,,0.00,weatherlink.com 1.10,2013-07-18 12:51:00,
2013-07-18 09:06:00,82.5,77.0,30.11,West,276,1.0,-999.0,82,-99.99,,,0.00,weatherlink.com 1.10,2013-07-18 13:06:00,
2013-07-18 09:21:00,83.8,77.0,30.11,West,268,0.0,-999.0,79,-99.99,,,0.00,weatherlink.com 1.10,2013-07-18 13:21:00,
2013-07-18 09:36:00,85.2,78.0,30.10,WNW,285,0.0,-999.0,78,-99.99,,,0.00,weatherlink.com 1.10,2013-07-18 13:36:00,
2013-07-18 09:51:00,86.0,78.0,30.10,NW,307,2.0,-999.0,77,-99.99,,,0.00,weatherlink.com 1.10,2013-07-18 13:51:00,
2013-07-18 10:06:00,87.1,78.0,30.10,WNW,288,1.0,-999.0,73,-99.99,,,0.00,weatherlink.com 1.10,2013-07-18 14:06:00,
2013-07-18 10:21:00,88.1,78.0,30.10,SSW,204,1.0,-999.0,72,-99.99,,,0.00,weatherlink.com 1.10,2013-07-18 14:21:00,
2013-07-18 10:36:00,89.3,79.0,30.10,WNW,288,1.0,-999.0,72,-99.99,,,0.00,weatherlink.com 1.10,2013-07-18 14:36:00,
2013-07-18 10:51:00,89.8,78.0,30.09,WNW,297,1.0,-999.0,69,-99.99,,,0.00,weatherlink.com 1.10,2013-07-18 14:51:00,
2013-07-18 11:06:00,90.6,79.0,30.09,WNW,284,1.0,-999.0,69,-99.99,,,0.00,weatherlink.com 1.10,2013-07-18 15:06:00,
2013-07-18 11:21:00,91.9,80.0,30.09,West,281,0.0,-999.0,68,-99.99,,,0.00,weatherlink.com 1.10,2013-07-18 15:21:00,
2013-07-18 11:36:00,91.9,79.0,30.09,WNW,302,6.0,-999.0,67,-99.99,,,0.00,weatherlink.com 1.10,2013-07-18 15:36:00,
2013-07-18 11:51:00,90.9,79.0,30.09,NW,304,2.0,-999.0,69,-99.99,,,0.00,weatherlink.com 1.10,2013-07-18 15:51:00,
2013-07-18 12:06:00,92.2,79.0,30.09,West,278,1.0,-999.0,65,-99.99,,,0.00,weatherlink.com 1.10,2013-07-18 16:06:00,
2013-07-18 12:21:00,91.1,78.0,30.09,NW,305,6.0,-999.0,65,-99.99,,,0.00,weatherlink.com 1.10,2013-07-18 16:21:00,
2013-07-18 12:36:00,92.9,79.0,30.07,SW,217,2.0,-999.0,64,-99.99,,,0.00,weatherlink.com 1.10,2013-07-18 16:36:00,
2013-07-18 12:51:00,94.2,78.0,30.07,West,277,2.0,-999.0,60,-99.99,,,0.00,weatherlink.com 1.10,2013-07-18 16:51:00,
2013-07-18 13:06:00,88.6,79.0,30.07,NW,314,2.0,-999.0,72,-99.99,,,0.00,weatherlink.com 1.10,2013-07-18 17:06:00,
2013-07-18 13:21:00,89.1,78.0,30.07,West,281,1.0,-999.0,70,-99.99,,,0.00,weatherlink.com 1.10,2013-07-18 17:21:00,
2013-07-18 13:36:00,89.2,79.0,30.06,WNW,285,1.0,-999.0,71,-99.99,,,0.00,weatherlink.com 1.10,2013-07-18 17:36:00,
2013-07-18 13:51:00,90.7,79.0,30.06,West,281,0.0,-999.0,68,-99.99,,,0.00,weatherlink.com 1.10,2013-07-18 17:51:00,
2013-07-18 14:06:00,93.4,78.0,30.05,SW,219,4.0,-999.0,61,-99.99,,,0.00,weatherlink.com 1.10,2013-07-18 18:06:00,
2013-07-18 14:21:00,94.2,78.0,30.05,WNW,294,2.0,-999.0,59,-99.99,,,0.00,weatherlink.com 1.10,2013-07-18 18:21:00,
2013-07-18 14:36:00,94.2,78.0,30.05,SSW,208,3.0,-999.0,60,-99.99,,,0.00,weatherlink.com 1.10,2013-07-18 18:36:00,
2013-07-18 14:51:00,95.2,79.0,30.04,SSW,204,4.0,-999.0,59,-99.99,,,0.00,weatherlink.com 1.10,2013-07-18 18:51:00,
2013-07-18 15:06:00,95.2,79.0,30.04,WNW,301,1.0,-999.0,60,-99.99,,,0.00,weatherlink.com 1.10,2013-07-18 19:06:00,
2013-07-18 15:21:00,93.9,78.0,30.03,South,171,4.0,-999.0,60,-99.99,,,0.00,weatherlink.com 1.10,2013-07-18 19:21:00,
2013-07-18 15:36:00,94.9,77.0,30.02,SSE,158,3.0,-999.0,57,-99.99,,,0.00,weatherlink.com 1.10,2013-07-18 19:36:00,
2013-07-18 15:51:00,95.3,79.0,30.02,NW,308,0.0,-999.0,59,-99.99,,,0.00,weatherlink.com 1.10,2013-07-18 19:51:00,
2013-07-18 16:06:00,95.1,79.0,30.01,SSW,203,1.0,-999.0,59,-99.99,,,0.00,weatherlink.com 1.10,2013-07-18 20:06:00,
2013-07-18 16:36:00,95.4,77.0,29.99,West,260,4.0,-999.0,55,-99.99,,,0.00,weatherlink.com 1.10,2013-07-18 20:36:00,
2013-07-18 16:51:00,95.8,77.0,29.98,South,173,2.0,-999.0,55,-99.99,,,0.00,weatherlink.com 1.10,2013-07-18 20:51:00,
2013-07-18 17:06:00,94.6,78.0,29.98,West,276,1.0,-999.0,58,-99.99,,,0.00,weatherlink.com 1.10,2013-07-18 21:06:00,
2013-07-18 17:21:00,93.5,77.0,29.97,WNW,294,2.0,-999.0,59,-99.99,,,0.00,weatherlink.com 1.10,2013-07-18 21:21:00,
2013-07-18 17:36:00,94.3,78.0,29.96,NE,54,2.0,-999.0,59,-99.99,,,0.00,weatherlink.com 1.10,2013-07-18 21:36:00,
2013-07-18 17:51:00,93.0,78.0,29.96,WNW,302,2.0,-999.0,61,-99.99,,,0.00,weatherlink.com 1.10,2013-07-18 21:51:00,
2013-07-18 18:06:00,91.9,77.0,29.97,NW,309,5.0,-999.0,62,-99.99,,,0.00,weatherlink.com 1.10,2013-07-18 22:06:00,
2013-07-18 18:21:00,92.0,78.0,29.97,NW,311,4.0,-999.0,63,-99.99,,,0.00,weatherlink.com 1.10,2013-07-18 22:21:00,
2013-07-18 18:36:00,90.9,76.0,29.96,WNW,293,2.0,-999.0,62,-99.99,,,0.00,weatherlink.com 1.10,2013-07-18 22:36:00,
2013-07-18 18:51:00,91.3,77.0,29.96,WNW,284,3.0,-999.0,63,-99.99,,,0.00,weatherlink.com 1.10,2013-07-18 22:51:00,
2013-07-18 19:06:00,91.6,77.0,29.96,WNW,288,3.0,-999.0,62,-99.99,,,0.00,weatherlink.com 1.10,2013-07-18 23:06:00,
2013-07-18 19:21:00,91.4,77.0,29.96,West,276,1.0,-999.0,63,-99.99,,,0.00,weatherlink.com 1.10,2013-07-18 23:21:00,
2013-07-18 19:36:00,90.0,77.0,29.96,WNW,287,0.0,-999.0,65,-99.99,,,0.00,weatherlink.com 1.10,2013-07-18 23:36:00,
2013-07-18 19:51:00,89.7,77.0,29.95,West,266,0.0,-999.0,67,-99.99,,,0.00,weatherlink.com 1.10,2013-07-18 23:51:00,
2013-07-18 20:06:00,90.4,78.0,29.95,West,280,0.0,-999.0,66,-99.99,,,0.00,weatherlink.com 1.10,2013-07-19 00:06:00,
2013-07-18 20:21:00,90.1,77.0,29.95,SSW,213,1.0,-999.0,65,-99.99,,,0.00,weatherlink.com 1.10,2013-07-19 00:21:00,
2013-07-18 20:36:00,88.9,78.0,29.95,SW,228,0.0,-999.0,69,-99.99,,,0.00,weatherlink.com 1.10,2013-07-19 00:36:00,
2013-07-18 20:51:00,88.2,77.0,29.94,SW,217,2.0,-999.0,69,-99.99,,,0.00,weatherlink.com 1.10,2013-07-19 00:51:00,
2013-07-18 21:06:00,86.8,77.0,29.94,SSE,163,2.0,-999.0,72,-99.99,,,0.00,weatherlink.com 1.10,2013-07-19 01:06:00,
2013-07-18 21:21:00,86.0,76.0,29.94,South,191,2.0,-999.0,73,-99.99,,,0.00,weatherlink.com 1.10,2013-07-19 01:21:00,
2013-07-18 21:36:00,85.3,77.0,29.94,SSW,198,1.0,-999.0,75,-99.99,,,0.00,weatherlink.com 1.10,2013-07-19 01:36:00,
2013-07-18 21:51:00,84.8,77.0,29.94,SW,217,1.0,-999.0,76,-99.99,,,0.00,weatherlink.com 1.10,2013-07-19 01:51:00,
2013-07-18 22:06:00,84.7,76.0,29.95,SW,214,1.0,-999.0,76,-99.99,,,0.00,weatherlink.com 1.10,2013-07-19 02:06:00,
2013-07-18 22:21:00,84.4,77.0,29.95,SSW,211,1.0,-999.0,77,-99.99,,,0.00,weatherlink.com 1.10,2013-07-19 02:21:00,
2013-07-18 22:36:00,83.9,77.0,29.95,SSW,212,3.0,-999.0,79,-99.99,,,0.00,weatherlink.com 1.10,2013-07-19 02:36:00,
2013-07-18 22:51:00,83.6,77.0,29.95,SW,217,3.0,-999.0,80,-99.99,,,0.00,weatherlink.com 1.10,2013-07-19 02:51:00,
2013-07-18 23:06:00,83.3,77.0,29.95,SSW,207,3.0,-999.0,81,-99.99,,,0.00,weatherlink.com 1.10,2013-07-19 03:06:00,
2013-07-18 23:21:00,83.0,77.0,29.95,SSW,205,2.0,-999.0,81,-99.99,,,0.00,weatherlink.com 1.10,2013-07-19 03:21:00,
2013-07-18 23:36:00,82.8,77.0,29.95,SSW,197,1.0,-999.0,82,-99.99,,,0.00,weatherlink.com 1.10,2013-07-19 03:36:00,
2013-07-18 23:51:00,82.5,77.0,29.95,SSW,207,2.0,-999.0,82,-99.99,,,0.00,weatherlink.com 1.10,2013-07-19 03:51:00,